Location: White Mills Observatory
(37.5374°N, 86.0303°W)
Time: 19:42:25
(UTC-04:00)

Amateur Radio Satellites - All Passes

Search period start: 26 March 2015 19:12
Search period end: 27 March 2015 19:12
Location: White Mills Observatory, 37.5374°N, 86.0303°W

Satellite Date Start Highest point End Downlink Frequencies (MHz)
Time Altitude Azimuth
M-CUBED/EXP-1 PRIME 26 Mar 19:13:46 19:18:40 90° 277° (W) 19:23:28 437.505
RS-15 26 Mar 19:18:46 19:27:22 30° 106° (ESE) 19:36:25 29.354- 29.394
STRAND 1 26 Mar 19:20:49 19:21:08 10° 87° (E) 19:21:52 437.568
SO-50 26 Mar 19:38:50 19:41:51 18° 110° (ESE) 19:45:06 436.795
Cubesat XI-IV 26 Mar 19:44:23 19:49:36 51° 260° (W) 19:54:51 437.490
CUTE-I 26 Mar 19:45:11 19:50:24 50° 260° (W) 19:55:37 437.470
CUBESAT XI-V 26 Mar 19:47:44 19:52:05 40° 97° (E) 19:56:26 437.345
MOZHAYETS 4 26 Mar 19:48:11 19:51:03 16° 293° (WNW) 19:53:44
JUGNU 26 Mar 19:49:32 19:51:11 11° 189° (S) 19:52:46 437.505
BEESAT 3 26 Mar 19:58:33 20:00:39 14° 44° (NE) 20:02:54 437.485
GONETS M04 26 Mar 19:59:57 20:07:24 35° 87° (E) 20:15:04
HO-68 26 Mar 20:15:49 20:20:52 22° 61° (ENE) 20:26:11 435.675
PRISM 26 Mar 20:21:42 20:25:55 79° 102° (ESE) 20:30:03 437.425
AUBIESAT-1 26 Mar 20:28:00 20:31:27 19° 298° (WNW) 20:34:45 437.475
BRITE-PL 26 Mar 20:28:26 20:32:03 22° 71° (ENE) 20:35:35 437.365/2234.400
SRMSAT 26 Mar 20:41:49 20:44:19 13° 185° (S) 20:46:47 437.500
M-CUBED/EXP-1 PRIME 26 Mar 20:51:29 20:52:53 11° 302° (WNW) 20:54:01 437.505
BEESAT 2 26 Mar 20:54:18 20:58:12 39° 54° (NE) 21:02:04 435.950
STRAND 1 26 Mar 20:55:56 21:01:04 79° 285° (WNW) 21:06:09 437.568
COMPASS 1 26 Mar 20:59:21 21:01:43 15° 68° (ENE) 21:04:16 437.405
SO-50 26 Mar 21:17:37 21:22:04 46° 306° (NW) 21:26:40 436.795
CANX-2 26 Mar 21:17:38 21:21:35 40° 73° (ENE) 21:25:35 2200.000
CUBESAT XI-V 26 Mar 21:26:00 21:29:16 19° 292° (WNW) 21:32:23 437.345
RS-15 26 Mar 21:28:05 21:38:57 69° 305° (NW) 21:50:00 29.354- 29.394
GOMX 1 26 Mar 21:30:12 21:34:48 64° 76° (ENE) 21:39:08 467.674
CUTE 1.7 + AOD 2 26 Mar 21:31:53 21:35:59 54° 75° (ENE) 21:40:08 437.475
DOVE 4 26 Mar 21:34:12 21:38:26 45° 74° (ENE) 21:42:31 437.250
BEESAT 3 26 Mar 21:35:06 21:39:09 59° 243° (WSW) 21:43:07 437.485
CINEMA 3 26 Mar 21:37:32 21:40:55 24° 71° (ENE) 21:44:18 145.822/145.860
CUSAT 1 26 Mar 21:42:26 21:44:24 16° 97° (E) 21:46:16 437.405
AIST 2 26 Mar 21:47:51 21:52:00 51° 56° (NE) 21:56:05 435.215
GONETS M04 26 Mar 21:55:44 22:04:02 47° 285° (WNW) 22:12:21
HO-68 26 Mar 22:00:53 22:08:01 70° 257° (WSW) 22:15:12 435.675
SEEDS 26 Mar 22:05:42 22:09:53 71° 259° (WSW) 22:14:06 437.485
BRITE-PL 26 Mar 22:06:00 22:10:28 34° 263° (W) 22:14:37 437.365/2234.400
DELFI C3 26 Mar 22:07:43 22:11:08 27° 71° (ENE) 22:14:39 145.870
AAUSAT CUBESAT 2 26 Mar 22:08:17 22:12:26 86° 78° (ENE) 22:16:39 437.432
CUBEBUG 2 26 Mar 22:09:59 22:13:34 29° 72° (ENE) 22:17:12 437.445
Oscar 11 26 Mar 22:10:36 22:14:37 40° 73° (ENE) 22:18:42 145.826/435.025
DANDE 26 Mar 22:11:42 22:14:54 32° 98° (E) 22:17:34 436.750
UWE-3 26 Mar 22:11:43 22:15:05 25° 71° (ENE) 22:18:32 435.000/436.395/437.385
FUNcube-1 26 Mar 22:15:53 22:19:02 22° 70° (ENE) 22:22:18 145.935
ZACube-1 26 Mar 22:27:04 22:30:40 30° 72° (ENE) 22:34:19 437.345
COMPASS 1 26 Mar 22:33:11 22:37:08 40° 262° (W) 22:41:05 437.405
BEESAT 2 26 Mar 22:33:24 22:36:04 16° 249° (WSW) 22:38:34 435.950
CANX-2 26 Mar 22:55:17 22:57:47 15° 269° (W) 23:00:05 2200.000
CUTE 1.7 + AOD 2 26 Mar 23:11:05 23:12:20 11° 271° (W) 23:13:20 437.475
GOMX 1 26 Mar 23:12:53 23:13:22 10° 270° (W) 23:13:30 467.674
DOVE 4 26 Mar 23:14:10 23:16:29 14° 269° (W) 23:18:32 437.250
CINEMA 3 26 Mar 23:14:35 23:18:06 24° 265° (W) 23:21:29 145.822/145.860
UKube-1 26 Mar 23:15:30 23:19:51 89° 89° (E) 23:24:13 .
DX 1 26 Mar 23:21:37 23:25:59 73° 258° (WSW) 23:30:22 434.975-435.025
CUSAT 1 26 Mar 23:26:10 23:27:09 11° 285° (WNW) 23:27:57 437.405
50 SAT 26 Mar 23:27:47 23:31:33 49° 75° (ENE) 23:35:21 437.505
AIST 2 26 Mar 23:28:09 23:30:12 13° 251° (WSW) 23:32:02 435.215
HUMSAT D 26 Mar 23:41:49 23:45:53 69° 259° (W) 23:50:00 437.325/437.525
DELFI C3 26 Mar 23:43:17 23:46:21 20° 267° (W) 23:49:20 145.870
QB50P2 26 Mar 23:44:25 23:46:32 14° 91° (E) 23:48:52 145.880/145.840
RS-15 26 Mar 23:45:45 23:54:01 23° 333° (NNW) 00:02:08 29.354- 29.394
CUBEBUG 2 26 Mar 23:47:17 23:50:21 19° 267° (W) 23:53:19 437.445
UWE-3 26 Mar 23:48:18 23:51:38 22° 266° (W) 23:54:53 435.000/436.395/437.385
Oscar 11 26 Mar 23:48:25 23:51:03 15° 269° (W) 23:53:30 145.826/435.025
VELOX 1 26 Mar 23:49:15 23:53:43 89° 256° (WSW) 23:58:12 145.980
UNISAT 6 26 Mar 23:50:09 23:54:19 35° 97° (E) 23:58:35 437.425
FUNcube-1 26 Mar 23:51:48 23:55:18 26° 265° (W) 23:58:46 145.935
AISAT 26 Mar 23:52:35 23:57:03 80° 257° (WSW) 00:01:31 437.250
CUBEBUG 1 26 Mar 23:58:30 00:02:45 49° 74° (ENE) 00:07:02 437.445
TIGRISAT 27 Mar 00:01:43 00:06:05 45° 99° (E) 00:10:32 435.000
ZACube-1 27 Mar 00:04:08 00:07:07 19° 267° (W) 00:10:01 437.345
ISS 27 Mar 00:08:03 00:10:58 31° 134° (SE) 00:13:55 145.825
ESTCUBE 1 27 Mar 00:11:48 00:16:21 80° 76° (ENE) 00:20:55 437.505/2401.250
POPSAT HIP 1 27 Mar 00:12:39 00:16:20 29° 96° (E) 00:20:03 437.405
SPROUT 27 Mar 00:20:33 00:23:44 21° 69° (ENE) 00:27:01 437.525
TISAT 1 27 Mar 00:21:36 00:24:27 18° 69° (ENE) 00:27:25 437.305
NANOSAT C BR1 27 Mar 00:24:20 00:28:19 40° 98° (E) 00:32:18 145.865
POLYITAN 1 27 Mar 00:25:44 00:29:46 43° 98° (E) 00:33:50 437.675
BUGSAT 1 27 Mar 00:28:08 00:31:41 30° 97° (E) 00:35:15 437.445
ANTELSAT 27 Mar 00:30:15 00:34:50 83° 283° (WNW) 00:39:30 437.575/2403.000
QB50P1 27 Mar 01:04:47 01:08:58 64° 285° (WNW) 01:13:10 145.935-145.965
50 SAT 27 Mar 01:06:27 01:06:51 10° 271° (W) 01:07:01 437.505
DUCHIFAT 1 27 Mar 01:08:26 01:12:35 59° 285° (WNW) 01:16:43 145.980
PCSat 27 Mar 01:17:41 01:22:46 40° 56° (NE) 01:27:52 145.827
QB50P2 27 Mar 01:18:41 01:22:43 43° 287° (WNW) 01:26:43 145.880/145.840
SWISSCUBE 27 Mar 01:21:25 01:24:14 16° 66° (ENE) 01:27:15 437.505
BEESAT 27 Mar 01:24:57 01:27:44 16° 66° (ENE) 01:30:44 436.000
UNISAT 6 27 Mar 01:27:28 01:30:56 21° 291° (WNW) 01:34:19 437.425
CUBEBUG 1 27 Mar 01:37:14 01:39:29 13° 270° (W) 01:41:28 437.445
TIGRISAT 27 Mar 01:39:37 01:42:32 17° 292° (WNW) 01:45:19 435.000
ISS 27 Mar 01:44:37 01:47:24 25° 329° (NNW) 01:50:10 145.825
POPSAT HIP 1 27 Mar 01:48:52 01:52:05 21° 291° (WNW) 01:55:12 437.405
YUBILEINY 27 Mar 01:54:29 02:03:02 52° 77° (ENE) 02:11:33 435.215
SPROUT 27 Mar 01:55:52 01:59:41 30° 264° (W) 02:03:27 437.525
TISAT 1 27 Mar 01:56:11 02:00:02 33° 263° (W) 02:03:53 437.305
NANOSAT C BR1 27 Mar 02:01:17 02:03:53 16° 292° (WNW) 02:06:20 145.865
POLYITAN 1 27 Mar 02:02:54 02:05:24 15° 293° (WNW) 02:07:43 437.675
BUGSAT 1 27 Mar 02:04:09 02:07:00 18° 291° (WNW) 02:09:44 437.445
RS-15 27 Mar 02:06:11 02:12:20 16° 9° (N) 02:18:48 29.354- 29.394
ITUPSAT 1 27 Mar 02:07:58 02:12:29 43° 72° (ENE) 02:17:04 437.325
KKS-1 27 Mar 02:22:37 02:22:55 10° 64° (ENE) 02:23:30 437.445
ITAMSAT 1 27 Mar 02:47:13 02:48:36 11° 88° (E) 02:50:21 435.822/435.867
SWISSCUBE 27 Mar 02:57:02 03:01:43 51° 260° (W) 03:06:25 437.505
STARS 27 Mar 02:58:52 03:01:34 17° 67° (ENE) 03:04:25 437.465
BEESAT 27 Mar 03:00:33 03:05:13 51° 260° (W) 03:09:54 436.000
PCSat 27 Mar 03:01:33 03:06:01 26° 252° (WSW) 03:10:19 145.827
Gurwin Techsat 1B 27 Mar 03:17:30 03:21:16 20° 92° (E) 03:25:11 435.225
Oscar 19 27 Mar 03:24:20 03:29:31 85° 287° (WNW) 03:34:43 437.125/150
ITUPSAT 1 27 Mar 03:47:17 03:50:38 18° 268° (W) 03:53:49 437.325
YUBILEINY 27 Mar 03:52:00 03:59:31 31° 274° (W) 04:06:44 435.215
KKS-1 27 Mar 03:54:37 03:59:03 72° 258° (WSW) 04:03:29 437.445
SO-50 27 Mar 04:11:49 04:14:20 14° 41° (NE) 04:17:01 436.795
RS-15 27 Mar 04:19:25 04:29:35 36° 41° (NE) 04:40:23 29.354- 29.394
ITAMSAT 1 27 Mar 04:23:35 04:28:47 74° 284° (WNW) 04:33:55 435.822/435.867
HORYU 2 27 Mar 04:24:21 04:27:27 19° 93° (E) 04:30:43 437.375
AIST 1 27 Mar 04:24:31 04:25:39 11° 86° (E) 04:27:04
STARS 27 Mar 04:33:37 04:37:45 40° 262° (W) 04:41:53 437.465
Gurwin Techsat 1B 27 Mar 04:56:27 05:01:31 46° 288° (WNW) 05:06:32 435.225
AO-7 27 Mar 04:58:33 05:05:38 32° 96° (E) 05:12:53 29.400- 29.500
JAS-2 27 Mar 05:06:33 05:13:17 33° 92° (E) 05:19:42 435.910
MOZHAYETS 4 27 Mar 05:09:47 05:13:59 36° 72° (ENE) 05:18:15
AUBIESAT-1 27 Mar 05:39:03 05:42:42 40° 67° (ENE) 05:46:43 437.475
O/OREOS (USA 219) 27 Mar 05:46:03 05:50:40 85° 294° (WNW) 05:55:17 437.305
SO-50 27 Mar 05:50:39 05:55:38 88° 248° (WSW) 06:00:33 436.795
AIST 1 27 Mar 05:58:33 06:02:53 54° 280° (W) 06:07:13
HORYU 2 27 Mar 06:00:07 06:04:16 36° 288° (WNW) 06:08:22 437.375
M-CUBED/EXP-1 PRIME 27 Mar 06:00:52 06:04:43 86° 74° (ENE) 06:08:59 437.505
GONETS M04 27 Mar 06:13:43 06:17:57 15° 60° (ENE) 06:22:49
RS-15 27 Mar 06:31:34 06:43:04 72° 244° (WSW) 06:55:00 29.354- 29.394
STRAND 1 27 Mar 06:33:42 06:36:13 14° 64° (ENE) 06:38:59 437.568
ISS 27 Mar 06:37:16 06:39:52 22° 28° (NNE) 06:42:30 145.825
MOZHAYETS 4 27 Mar 06:47:59 06:51:22 19° 268° (W) 06:54:38
CUBESAT XI-V 27 Mar 06:49:19 06:53:28 32° 71° (ENE) 06:57:40 437.345
AO-7 27 Mar 06:50:46 06:58:46 54° 293° (WNW) 07:06:42 29.400- 29.500
JAS-2 27 Mar 06:51:05 06:58:32 49° 291° (WNW) 07:05:24 435.910
PRISM 27 Mar 07:10:02 07:14:00 43° 73° (ENE) 07:18:03 437.425
AUBIESAT-1 27 Mar 07:15:40 07:17:53 14° 266° (W) 07:20:01 437.475
VERMONT LUNAR 27 Mar 07:17:05 07:20:14 39° 153° (SSE) 07:23:23 437.305
PHONESAT 2.4 27 Mar 07:35:55 07:38:51 25° 149° (SSE) 07:41:48 2401.200-2431.200
Cubesat XI-IV 27 Mar 08:03:31 08:08:52 77° 101° (ESE) 08:14:11 437.490
CUTE-I 27 Mar 08:04:08 08:09:28 77° 102° (ESE) 08:14:47 437.470
GONETS M04 27 Mar 08:07:40 08:16:32 80° 82° (E) 08:25:24
STRAND 1 27 Mar 08:09:47 08:14:55 68° 258° (WSW) 08:20:04 437.568
ISS 27 Mar 08:13:20 08:16:23 38° 225° (SW) 08:19:23 145.825
CUSAT 1 27 Mar 08:18:40 08:21:22 17° 76° (ENE) 08:24:44 437.405
CUBESAT XI-V 27 Mar 08:27:09 08:30:58 23° 267° (W) 08:34:40 437.345
PRISM 27 Mar 08:47:31 08:49:47 14° 269° (W) 08:51:51 437.425
RS-15 27 Mar 08:48:20 08:54:01 14° 260° (W) 08:58:36 29.354- 29.394
AO-7 27 Mar 08:48:27 08:49:55 10° 312° (NW) 08:50:49 29.400- 29.500
DANDE 27 Mar 08:51:24 08:54:42 26° 79° (E) 08:58:56 436.750
VERMONT LUNAR 27 Mar 08:54:35 08:57:54 61° 348° (NNW) 09:01:15 437.305
PHONESAT 2.4 27 Mar 09:13:27 09:16:59 82° 342° (NNW) 09:20:32 2401.200-2431.200
CUTE 1.7 + AOD 2 27 Mar 09:21:37 09:22:42 11° 89° (E) 09:24:04 437.475
HO-68 27 Mar 09:31:34 09:37:14 26° 93° (E) 09:43:06 435.675
GOMX 1 27 Mar 09:34:23 09:37:25 19° 94° (E) 09:40:43 467.674
DOVE 4 27 Mar 09:36:14 09:38:18 14° 91° (E) 09:40:39 437.250
Cubesat XI-IV 27 Mar 09:45:50 09:48:23 13° 297° (WNW) 09:50:39 437.490
CUTE-I 27 Mar 09:46:27 09:48:58 13° 297° (WNW) 09:51:13 437.470
SEEDS 27 Mar 09:52:49 09:56:07 22° 94° (E) 09:59:30 437.485
AAUSAT CUBESAT 2 27 Mar 09:54:42 09:57:14 16° 91° (E) 09:59:57 437.432
CUSAT 1 27 Mar 10:00:07 10:04:06 39° 262° (W) 10:09:15 437.405
GONETS M04 27 Mar 10:06:37 10:12:29 19° 279° (W) 10:17:52
BRITE-PL 27 Mar 10:11:55 10:16:06 85° 102° (ESE) 10:20:28 437.365/2234.400
COMPASS 1 27 Mar 10:18:41 10:22:35 35° 97° (E) 10:26:31 437.405
VERMONT LUNAR 27 Mar 10:32:35 10:35:53 51° 6° (N) 10:39:12 437.305
DANDE 27 Mar 10:34:43 10:37:57 22° 263° (W) 10:41:47 436.750
CANX-2 27 Mar 10:40:24 10:44:44 75° 284° (WNW) 10:49:01 2200.000
UNISAT 6 27 Mar 10:48:09 10:51:30 23° 70° (ENE) 10:54:57 437.425
BEESAT 2 27 Mar 10:49:09 10:50:36 12° 109° (ESE) 10:52:19 435.950
PHONESAT 2.4 27 Mar 10:52:05 10:55:33 50° 1° (N) 10:59:01 2401.200-2431.200
CUTE 1.7 + AOD 2 27 Mar 10:54:49 10:59:03 56° 285° (WNW) 11:03:16 437.475
TIGRISAT 27 Mar 10:59:14 11:02:55 30° 71° (ENE) 11:06:41 435.000
POPSAT HIP 1 27 Mar 11:04:34 11:07:23 18° 69° (ENE) 11:10:21 437.405
UKube-1 27 Mar 11:06:18 11:09:04 17° 93° (E) 11:11:59 .
CINEMA 3 27 Mar 11:09:51 11:14:15 83° 105° (ESE) 11:18:50 145.822/145.860
GOMX 1 27 Mar 11:11:54 11:15:40 31° 288° (WNW) 11:19:32 467.674
DOVE 4 27 Mar 11:12:14 11:16:21 46° 286° (WNW) 11:20:39 437.250
DX 1 27 Mar 11:12:43 11:16:02 22° 94° (E) 11:19:25 434.975-435.025
NANOSAT C BR1 27 Mar 11:15:39 11:19:00 24° 70° (ENE) 11:22:28 145.865
BUGSAT 1 27 Mar 11:17:13 11:20:00 18° 69° (ENE) 11:22:53 437.445
POLYITAN 1 27 Mar 11:17:28 11:20:56 26° 71° (ENE) 11:24:28 437.675
HO-68 27 Mar 11:18:21 11:25:22 56° 290° (WNW) 11:32:19 435.675
DELFI C3 27 Mar 11:23:47 11:27:52 63° 100° (E) 11:31:55 145.870
BEESAT 3 27 Mar 11:26:41 11:30:28 39° 115° (ESE) 11:34:21 437.485
ANTELSAT 27 Mar 11:27:35 11:31:48 68° 76° (ENE) 11:36:05 437.575/2403.000
SEEDS 27 Mar 11:28:15 11:31:56 28° 289° (WNW) 11:35:33 437.485
HUMSAT D 27 Mar 11:28:31 11:31:47 22° 94° (E) 11:35:09 437.325/437.525
AAUSAT CUBESAT 2 27 Mar 11:29:08 11:33:04 37° 287° (WNW) 11:36:58 437.432
Oscar 11 27 Mar 11:35:35 11:39:57 73° 284° (WNW) 11:44:18 145.826/435.025
CUBEBUG 2 27 Mar 11:38:27 11:42:52 88° 283° (WNW) 11:47:25 437.445
UWE-3 27 Mar 11:38:40 11:43:04 77° 102° (ESE) 11:47:35 435.000/436.395/437.385
FUNcube-1 27 Mar 11:41:01 11:45:21 64° 100° (E) 11:49:47 145.935
VELOX 1 27 Mar 11:42:48 11:45:58 20° 93° (E) 11:49:15 145.980
AIST 2 27 Mar 11:45:16 11:48:06 18° 111° (ESE) 11:51:04 435.215
AISAT 27 Mar 11:46:10 11:49:35 22° 94° (E) 11:53:05 437.250
CUBEBUG 1 27 Mar 11:52:42 11:52:58 10° 89° (E) 11:53:34 437.445
ZACube-1 27 Mar 11:52:54 11:57:17 89° 100° (E) 12:01:46 437.345
COMPASS 1 27 Mar 11:55:08 11:58:04 18° 291° (WNW) 12:00:50 437.405
QB50P1 27 Mar 11:55:26 11:59:38 72° 76° (ENE) 12:03:52 145.935-145.965
DUCHIFAT 1 27 Mar 11:58:45 12:02:57 78° 76° (ENE) 12:07:10 145.980
ESTCUBE 1 27 Mar 12:07:35 12:10:46 19° 93° (E) 12:14:04 437.505/2401.250
QB50P2 27 Mar 12:09:22 12:13:36 75° 258° (WSW) 12:17:50 145.880/145.840
VERMONT LUNAR 27 Mar 12:10:21 12:13:41 63° 202° (SSW) 12:17:02 437.305
BEESAT 2 27 Mar 12:24:19 12:28:21 54° 303° (WNW) 12:32:26 435.950
UNISAT 6 27 Mar 12:24:37 12:28:14 26° 265° (W) 12:31:48 437.425
PHONESAT 2.4 27 Mar 12:30:31 12:34:05 88° 16° (NNE) 12:37:40 2401.200-2431.200
TIGRISAT 27 Mar 12:36:35 12:39:46 20° 267° (W) 12:42:51 435.000
POPSAT HIP 1 27 Mar 12:39:13 12:43:05 33° 263° (W) 12:46:54 437.405
UKube-1 27 Mar 12:41:24 12:45:23 36° 288° (WNW) 12:49:20 .
50 SAT 27 Mar 12:42:10 12:46:12 74° 284° (WNW) 12:50:15 437.505
DX 1 27 Mar 12:48:32 12:52:19 29° 289° (WNW) 12:56:02 434.975-435.025
NANOSAT C BR1 27 Mar 12:51:18 12:54:49 25° 265° (W) 12:58:15 145.865
BUGSAT 1 27 Mar 12:51:28 12:55:17 33° 263° (W) 12:59:03 437.445
POLYITAN 1 27 Mar 12:53:25 12:56:50 23° 265° (W) 13:00:10 437.675
Oscar 19 27 Mar 13:03:24 13:05:33 13° 63° (ENE) 13:07:57 437.125/150
HUMSAT D 27 Mar 13:03:54 13:07:34 28° 288° (WNW) 13:11:12 437.325/437.525
BEESAT 3 27 Mar 13:05:42 13:08:43 19° 312° (NW) 13:11:40 437.485
VELOX 1 27 Mar 13:18:41 13:22:39 33° 289° (WNW) 13:26:33 145.980
FUNcube-1 27 Mar 13:19:50 13:21:16 11° 294° (WNW) 13:22:28 145.935
AISAT 27 Mar 13:22:22 13:26:13 29° 289° (WNW) 13:29:59 437.250
AIST 2 27 Mar 13:22:25 13:26:26 39° 306° (NW) 13:30:29 435.215
CUBEBUG 1 27 Mar 13:25:33 13:29:50 60° 285° (WNW) 13:34:04 437.445
TISAT 1 27 Mar 13:42:31 13:46:28 40° 98° (E) 13:50:27 437.305
ESTCUBE 1 27 Mar 13:43:39 13:47:47 35° 288° (WNW) 13:51:51 437.505/2401.250
SPROUT 27 Mar 13:43:58 13:48:09 52° 100° (E) 13:52:20 437.525
VERMONT LUNAR 27 Mar 13:49:24 13:51:02 13° 215° (SW) 13:52:35 437.305
ITAMSAT 1 27 Mar 14:02:40 14:05:42 16° 65° (ENE) 14:08:57 435.822/435.867
PHONESAT 2.4 27 Mar 14:09:21 14:12:12 22° 212° (SSW) 14:15:02 2401.200-2431.200
ITUPSAT 1 27 Mar 14:12:29 14:14:29 13° 89° (E) 14:16:46 437.325
O/OREOS (USA 219) 27 Mar 14:20:42 14:22:44 13° 54° (NE) 14:24:57 437.305
Gurwin Techsat 1B 27 Mar 14:36:37 14:40:57 27° 68° (ENE) 14:45:25 435.225
Oscar 19 27 Mar 14:39:16 14:44:22 72° 259° (W) 14:49:30 437.125/150
YUBILEINY 27 Mar 14:52:22 15:00:59 64° 93° (E) 15:09:43 435.215
SWISSCUBE 27 Mar 14:59:23 15:04:00 47° 99° (E) 15:08:36 437.505
BEESAT 27 Mar 15:02:46 15:07:23 46° 99° (E) 15:11:59 436.000
TISAT 1 27 Mar 15:19:28 15:21:59 15° 293° (WNW) 15:24:20 437.305
JAS-2 27 Mar 15:19:53 15:22:13 12° 55° (NE) 15:25:05 435.910
SPROUT 27 Mar 15:21:53 15:23:51 13° 294° (WNW) 15:25:38 437.525
HORYU 2 27 Mar 15:21:56 15:24:15 15° 66° (ENE) 15:26:46 437.375
ITAMSAT 1 27 Mar 15:39:37 15:44:46 60° 259° (W) 15:49:57 435.822/435.867
ITUPSAT 1 27 Mar 15:48:08 15:52:52 59° 286° (WNW) 15:57:33 437.325
KKS-1 27 Mar 15:48:16 15:51:53 25° 95° (E) 15:55:35 437.445
AO-7 27 Mar 15:55:31 16:02:51 38° 63° (ENE) 16:10:20 29.400- 29.500
PCSat 27 Mar 15:57:08 16:02:23 54° 113° (ESE) 16:07:41 145.827
O/OREOS (USA 219) 27 Mar 15:58:11 16:02:41 62° 252° (WSW) 16:07:08 437.305
JUGNU 27 Mar 15:58:19 15:59:46 11° 170° (S) 16:01:19 437.505
AIST 1 27 Mar 16:08:11 16:11:55 28° 76° (ENE) 16:15:40
Gurwin Techsat 1B 27 Mar 16:15:58 16:20:49 35° 263° (W) 16:25:38 435.225
STARS 27 Mar 16:25:12 16:29:21 40° 99° (E) 16:33:30 437.465
SWISSCUBE 27 Mar 16:38:20 16:41:32 17° 294° (WNW) 16:44:32 437.505
BEESAT 27 Mar 16:41:42 16:44:54 17° 294° (WNW) 16:47:55 436.000
YUBILEINY 27 Mar 16:51:25 16:58:35 26° 293° (WNW) 17:05:29 435.215
HORYU 2 27 Mar 16:56:16 17:00:32 49° 260° (W) 17:04:52 437.375
JAS-2 27 Mar 16:59:16 17:05:53 68° 73° (ENE) 17:13:20 435.910
KKS-1 27 Mar 17:24:45 17:28:31 27° 290° (WNW) 17:32:13 437.445
PCSat 27 Mar 17:42:02 17:46:12 21° 311° (NW) 17:50:15 145.827
JUGNU 27 Mar 17:45:06 17:47:58 14° 180° (S) 17:50:50 437.505
AIST 1 27 Mar 17:46:15 17:49:25 20° 271° (W) 17:52:26
Cubesat XI-IV 27 Mar 17:47:18 17:49:27 13° 63° (ENE) 17:51:54 437.490
AO-7 27 Mar 17:47:36 17:55:33 47° 260° (W) 18:03:25 29.400- 29.500
CUTE-I 27 Mar 17:47:48 17:49:55 13° 63° (ENE) 17:52:21 437.470
STARS 27 Mar 18:02:39 18:05:32 17° 293° (WNW) 18:08:17 437.465
SRMSAT 27 Mar 18:40:26 18:43:05 13° 176° (S) 18:45:46 437.500
MOZHAYETS 4 27 Mar 18:43:34 18:48:13 70° 284° (WNW) 18:52:49
RS-15 27 Mar 18:44:49 18:51:43 21° 103° (ESE) 18:59:18 29.354- 29.394
JAS-2 27 Mar 18:46:46 18:51:45 20° 273° (W) 18:56:47 435.910
AUBIESAT-1 27 Mar 18:56:19 19:01:01 50° 103° (ESE) 19:05:37 437.475
